CZ-6A DEB

Satellite information

Favourite Embed

Satellite Type and Status

DEBRISIN ORBIT

Key statistics

Satellite CZ-6A DEB at a glance.

Uptime

1128

Days in orbit

Revolutions

≈ 13.7

Per day

Orbit

SSO

Sun Synchronous Orbit

Inclination

99.0

Latest

Satellite identification and parameters

Extended collection of information and parameters for CZ-6A DEB.

Object identification

Identified? True

Debris? True

Object name: CZ-6A DEB

International designator: 2022-151EP

Object number (NORAD): 54415

Object ID (CCSDS): 54415

Country: PEOPLES REPUBLIC OF CHINA (PRC)

Current information (Y/N): Y

RCS size: MEDIUM

Orbital parameters

Period: 105.409 minutes

Inclination: 98.9996 deg

SMA: 7391.729 km

Apoapsis: 1274.372 km

Periapsis: 752.817 km

RAAN: 280.4383 deg

Eccentricy: 0.03527966

Argument of periapsis: 329.6473 deg

Mean anomaly: 28.4655 deg

Mean motion: 13.66103722 rev/day

Mean motion (dot): 0.00002155 rev/day2

B* drag term: 0.0017380424 1/REarth

Two-line elements (TLE)

Creation date: Dec. 12, 2025, 10:14 a.m.

Reference frame: TEME

Reference center: EARTH

Epoch: Dec. 12, 2025, 5:36 a.m. UTC

TLE line 0: 0 CZ-6A DEB

TLE line 1: 1 54415U 22151EP 25346.23358476 .00002155 00000-0 17380-2 0 9992

TLE line 2: 2 54415 98.9996 280.4383 0352797 329.6473 28.4655 13.66103722153309

Live tracking on map

Real-time ground track for satellite CZ-6A DEB.

In-orbit conjunctions

A list of the most updated potential collisions computed for object CZ-6A DEB.

Target Orbit TCA Probability of collision Miss distance Type
OPS 4682 DEB SSO 2024-06-28 01:13:09 0.00014213 138.0 (m) DEBRIS
FENGYUN 1C DEB SSO 2024-06-20 07:15:06 0.0003587297 53.0 (m) DEBRIS

Associated space launch

Chinese satellite reported for atmospheric/ocean/environmental/spatial parameter research purposes, details TBD.

CZ-6A DEB was lifted into orbit during the mission ‘Long March 6A | Yunhai 3’, on board a Long March 6A space rocket.

The launch took place on Nov. 11, 2022, 10:52 p.m. from Launch Complex 9A.

For more information about the launch, click the button.

Launch to space Long March 6A | Yunhai 3
Long March 6A | Yunhai 3

Agency: N/A

Status: Launch Successful

Launch date: Nov. 11, 2022, 10:52 p.m. UTC

Rocket: Long March 6A

Launch pad: Launch Complex 9A

Location: Taiyuan Satellite Launch Center, People's Republic of China

...

Latest news about this satellite

There are no fresh news available about this satellite. Check back as we update our databases every day.


Newsletter sign-up

Weekly statistics, charts and insights to help you stay on top of the space industry.